Etusivu
METAR-TAF:

METAR-TAF

Lentoasemat :

Colmar, Ranska

Leveyspiiri: 48-06-37N, Pituuspiiri: 7-21-33E, korkeus merenpinnasta: 191 m

Tämänhetkinen sää

Tämä raportti tehtiin 32 minuuttia sitten, kello 08.00 UTC
Tuuli 6 kn pohjoisesta, vaihdellen pohjoisen/luoteen ja koillisen välillä
Lämpötila 17°C
Kosteus 63%
Ilmanpaine 1033 hPa
Näkyvyys 10 km tai enemmän
ei pilviä alle 1500 m:ssä eikä cumulonimbus-pilviä

METAR: LFGA 250800Z AUTO 01006KT 340V050 CAVOK 17/10 Q1033

Aika: 10:32 (08:32 UTC)


TAF: puuttuu

Säähavainnot ja -ennusteet yli 4000 lentoasemalta (METAR- ja TAF-raportit).

Käytössä olevat sääasemat on merkitty karttaan keltaisilla ja punaisilla pisteillä.

Aseta hiiri pisteen päälle nähdäksesi sääaseman nimen.

Klikkaa sitten nähdäksesi säähavainnot ja -ennusteet.

Kartan vaihtaminen: klikkaa mustalla rastilla varustettuja vihreitä pisteitä, niin voit zoomata sisään; viivalla varustettua vihreää pistettä, niin voit zoomata ulos tai vihreitä nuolia, niin pääset viereisille kartoille.


METAR-TAF: